Flag for Cameroon Weather past 2 weeks in Douala, Cameroon

Now
79 °F

Partly sunny.


Feels Like: 82 °F
Forecast: 75 / 85 °F
Wind: 9 mph from West

Location: Douala Obs.

Current Time: Jul 28, 2014 at 7:13:23 PM

Latest Report: Jul 28, 2014 at 6:00 PM


Visibility: N/A

Pressure: 29.89 "Hg

Humidity: 84%

Dew point: 73 °F

Location of DoualaLocation

Historic Weather in Douala — Graph

°F

Douala temperature yesterday

Maximum temperature yesterday: 79 °F (at 1:00 PM)
Minimum temperature yesterday: 73 °F (at 3:00 AM)
Average temperature yesterday: 76 °F

Past Weeks' High & Low Weather Summary

 TemperatureHumidityPressure
High84 °F (Jul 14, 4:00 PM)100% (Jul 14, 6:00 AM)30.04 "Hg (Jul 14, 6:00 AM)
Low72 °F (Jul 15, 11:00 AM)70% (Jul 19, 4:00 PM)29.86 "Hg (Jul 14, 6:00 PM)
Average77 °F91%29.97 "Hg
* Reported Jul 13 6:00 PM — Jul 28 6:00 PM, Douala, Weather by CustomWeather, © 2014

Note: Actual official high and low records may vary slightly from our data, if they occured in-between our weather recording intervals... More about our weather records

Advertising

Douala weather history for previous 24 hours

 ConditionsComfort  
Time TempWeatherWind HumidityBarometerVisibility
6:00 PM
Jul 28
79 °FPartly sunny.9 mph84%29.89 "HgN/A
5:00 PM82 °FPartly sunny.9 mph74%29.89 "HgN/A
4:00 PM84 °FPartly sunny.9 mph70%29.89 "HgN/A
3:00 PM84 °FPartly sunny.12 mph70%29.89 "HgN/A
2:00 PM82 °FPartly sunny.9 mph79%29.92 "HgN/A
1:00 PM84 °FPartly sunny.7 mph70%29.92 "HgN/A
12:00 PM82 °FPartly sunny.6 mph74%29.95 "HgN/A
11:00 AM82 °FPartly sunny.6 mph74%29.98 "HgN/A
10:00 AM77 °FBroken clouds.No wind89%30.01 "HgN/A
9:00 AM77 °FBroken clouds.7 mph100%29.98 "Hg4 mi
8:00 AM75 °FFog.No wind94%29.95 "Hg2 mi
7:00 AM73 °FPartly sunny.No wind100%29.95 "Hg4 mi
6:00 AM73 °FPassing clouds.No wind100%29.92 "Hg4 mi
5:00 AM75 °FPassing clouds.No wind94%29.92 "Hg4 mi
4:00 AM75 °FPassing clouds.No wind94%29.92 "Hg5 mi
3:00 AM75 °FPassing clouds.No wind94%29.92 "Hg5 mi
2:00 AM75 °FPassing clouds.No wind94%29.92 "HgN/A
1:00 AM75 °FPassing clouds.No wind94%29.95 "HgN/A
12:00 AM73 °FPassing clouds.No wind100%29.95 "HgN/A
11:00 PM
Jul 27
73 °FPassing clouds.No wind100%29.95 "HgN/A
10:00 PM73 °FPassing clouds.No wind100%29.95 "HgN/A
9:00 PM75 °FPassing clouds.No wind94%29.95 "HgN/A
8:00 PM77 °FPassing clouds.No wind89%29.92 "HgN/A
7:00 PM77 °FPassing clouds.No wind89%29.89 "HgN/A
Weather by CustomWeather, © 2014

See weather overviewHow to use our weather pages